Weather Roundup
Issued by NWS

Home | Current Version | Previous Version | Graphics & Text | Print | Product List | Glossary Off
Versions: 1 2 3 4 5 6 7 8 9 10 11 12 13 14 15 16 17 18 19 20 21 22 23 24 25 26 27 28 29 30 31 32 33 34 35 36 37 38 39 40 41 42 43 44 45 46 47 48 49 50

399
NZUS93 KARX 261310
HRRWXR

CURRENT HOURLY OBSERVATIONS ACROSS
MUCH OF THE UPPER MISSISSIPPI VALLEY
NATIONAL WEATHER SERVICE LA CROSSE WI
800 AM CDT MON SEP 26 2016


...SOUTHEAST MINNESOTA...


CITY           SKY/WX    TMP DP  RH WIND       PRES   REMARKS
ROCHESTER      CLEAR     49  40  71 W15G24    29.99S
ROCHESTER/MAYO FAIR      50  40  69 W14G23    29.98S
WINONA         PTCLDY    54  41  62 W12G26    29.95S
AUSTIN         CLEAR     48  37  66 W10G18    30.02S
ALBERT LEA     CLEAR     50  39  66 W9        30.03S
DODGE CENTER   CLEAR     48  39  71 W12       30.00R
PRESTON        CLEAR     48  39  70 W10       30.00S
OWATONNA       CLEAR     50  39  66 W13G18    30.01S
FARIBAULT      CLEAR     52  39  62 W13       30.00S
$$

...ELSEWHERE IN MINNESOTA...


CITY           SKY/WX    TMP DP  RH WIND       PRES   REMARKS
MINNEAPOLIS    PTCLDY    52  39  61 W14       29.95R
INTNL FALLS    LGT RAIN  48  46  93 W17G25    29.65F
DULUTH         CLOUDY    49  45  86 W21G31    29.70S
RED WING       PTCLDY    52  39  62 W14G20    29.93S
REDWOOD FALLS  CLEAR     49  36  61 W15       30.04S
MANKATO        CLEAR     49  39  68 W12       30.03R
WORTHINGTON    CLEAR     45  36  70 W13       30.13R
FAIRMONT       CLEAR     49  38  65 W16G22    30.08S
$$

...SOUTHWEST WISCONSIN...


CITY           SKY/WX    TMP DP  RH WIND       PRES   REMARKS
LA CROSSE      MOSUNNY   56  42  59 W16G26    29.95S
PRAIRIE DU CHI SUNNY     53  41  63 W10       30.01S
BOSCOBEL       MOSUNNY   53  44  71 SW7       30.00R
LONE ROCK      SUNNY     53  44  71 W8        29.98S
PLATTEVILLE    SUNNY     52  46  80 W12       30.02S
FORT MC COY    SUNNY     51  44  79 W9        29.94R
CAMP DOUGLAS   MOSUNNY   52  45  76 SW14G21   29.91S
MAUSTON-NEW LI SUNNY     53  44  73 W10       29.92R
VIROQUA        FAIR      49  43  79 W6        29.96S
WIS DELLS      SUNNY     52  42  70 W12G17    29.94S
$$

...ELSEWHERE IN WISCONSIN...


CITY           SKY/WX    TMP DP  RH WIND       PRES   REMARKS
MILWAUKEE      PTSUNNY   57  48  72 SW12      29.94S
MADISON        MOSUNNY   53  45  74 VRB7      29.95S
GREEN BAY      CLOUDY    54  47  77 SW10G24   29.81F
EAU CLAIRE     CLOUDY    51  42  71 W15       29.87S
BLACK RVR FLS  FAIR      51  42  71 W10       29.91R
MEDFORD        CLOUDY    49  46  90 W15G23    29.80F
WAUSAU         CLOUDY    51  43  74 W14G23    29.80R
WIS RAPIDS     SUNNY     52  45  77 W9G23     29.88S
MARSHFIELD     MOSUNNY   51  43  74 W16       29.84S
RICE LAKE      CLOUDY    51  41  69 W13G18    29.86R
$$

...NORTHEAST IOWA...


CITY           SKY/WX    TMP DP  RH WIND       PRES   REMARKS
WATERLOO       CLEAR     50  41  71 W13       30.07R
DUBUQUE        SUNNY     50  44  80 W12       30.04R
DECORAH        SUNNY     50  41  71 W9G16     30.00S
MASON CITY     CLEAR     48  39  71 W14       30.08S
CHARLES CITY   CLEAR     50  41  71 W10       30.05S
OELWEIN        SUNNY     50  43  76 W10       30.06S
$$

...ELSEWHERE IN IOWA...


CITY           SKY/WX    TMP DP  RH WIND       PRES   REMARKS
DES MOINES     CLEAR     52  41  66 NW8       30.16R
IOWA CITY      SUNNY     51  44  77 W8        30.12R
FORT DODGE     CLEAR     46  37  71 W10       30.13R
MARSHALLTOWN   CLEAR     50  41  71 W12       30.11R
CEDAR RAPIDS   SUNNY     51  44  77 W12       30.09R
$$

...NORTHERN ILLINOIS...


CITY           SKY/WX    TMP DP  RH WIND       PRES   REMARKS
CHICAGO-OHARE  CLOUDY    58  48  69 W9        29.99S
CHICAGO-MIDWAY CLOUDY    61  48  62 W10       30.00S
MOLINE         SUNNY     56  45  66 W10       30.08S
ROCKFORD       MOSUNNY   55  47  74 W12       30.03S
PEORIA         SUNNY     56  50  80 W8        30.10S
$$

NOTE: "FAIR" INDICATES FEW OR NO CLOUDS BELOW 12,000 FEET WITH NO
SIGNIFICANT WEATHER AND/OR OBSTRUCTIONS TO VISIBILITY. WIND
SPEEDS ARE IN MILES-PER-HOUR.




USA.gov is the U.S. government's official web portal to all federal, state and local government web resources and services.